Time,TemperatureF,DewpointF,PressureIn,WindDirection,WindDirectionDegrees,WindSpeedMPH,WindSpeedGustMPH,Humidity,HourlyPrecipIn,Conditions,Clouds,dailyrainin,SoftwareType,DateUTC
2013-03-05 00:00:00,49.5,39.8,30.18,North,0,0.0,0.0,69,0.00,,,0.00,WUHU216HW,2013-03-05 05:00:00,
2013-03-05 00:05:00,49.3,40.0,30.18,East,90,0.0,0.0,70,0.00,,,0.00,WUHU216HW,2013-03-05 05:05:00,
2013-03-05 00:10:00,49.3,40.0,30.18,East,90,0.0,0.0,70,0.00,,,0.00,WUHU216HW,2013-03-05 05:10:00,
2013-03-05 00:15:00,49.5,40.5,30.17,East,90,0.0,0.0,71,0.00,,,0.00,WUHU216HW,2013-03-05 05:15:00,
2013-03-05 00:20:00,49.7,41.1,30.17,East,90,0.0,0.0,72,0.00,,,0.00,WUHU216HW,2013-03-05 05:20:00,
2013-03-05 00:25:00,49.7,41.1,30.16,East,90,0.0,0.0,72,0.00,,,0.00,WUHU216HW,2013-03-05 05:25:00,
2013-03-05 00:30:00,49.9,41.2,30.16,East,90,0.0,0.0,72,0.00,,,0.00,WUHU216HW,2013-03-05 05:30:00,
2013-03-05 00:35:00,49.9,41.2,30.16,East,90,0.0,0.0,72,0.00,,,0.00,WUHU216HW,2013-03-05 05:35:00,
2013-03-05 00:40:00,49.9,40.9,30.16,East,90,0.0,0.0,71,0.00,,,0.00,WUHU216HW,2013-03-05 05:40:00,
2013-03-05 00:45:00,49.7,40.7,30.16,East,90,0.0,0.0,71,0.00,,,0.00,WUHU216HW,2013-03-05 05:45:00,
2013-03-05 00:50:00,49.7,40.7,30.16,West,270,0.0,0.0,71,0.00,,,0.00,WUHU216HW,2013-03-05 05:50:00,
2013-03-05 00:55:00,49.7,40.7,30.16,West,270,0.0,0.0,71,0.00,,,0.00,WUHU216HW,2013-03-05 05:55:00,
2013-03-05 01:00:00,49.5,40.5,30.16,WNW,293,0.0,0.0,71,0.00,,,0.00,WUHU216HW,2013-03-05 06:00:00,
2013-03-05 01:05:00,49.3,40.3,30.16,NW,315,0.0,0.0,71,0.00,,,0.00,WUHU216HW,2013-03-05 06:05:00,
2013-03-05 01:10:00,49.3,40.7,30.16,NW,315,0.0,0.0,72,0.00,,,0.00,WUHU216HW,2013-03-05 06:10:00,
2013-03-05 01:15:00,49.1,40.5,30.16,NW,315,0.0,0.0,72,0.00,,,0.00,WUHU216HW,2013-03-05 06:15:00,
2013-03-05 01:20:00,49.1,40.5,30.16,NW,315,0.0,0.0,72,0.00,,,0.00,WUHU216HW,2013-03-05 06:20:00,
2013-03-05 01:25:00,49.0,40.3,30.16,NW,315,0.0,0.0,72,0.00,,,0.00,WUHU216HW,2013-03-05 06:25:00,
2013-03-05 01:30:00,49.0,40.3,30.16,NW,315,0.0,0.0,72,0.00,,,0.00,WUHU216HW,2013-03-05 06:30:00,
2013-03-05 01:35:00,48.8,40.2,30.16,NW,315,0.0,0.0,72,0.00,,,0.00,WUHU216HW,2013-03-05 06:35:00,
2013-03-05 01:40:00,48.6,40.0,30.16,ENE,68,0.0,0.0,72,0.00,,,0.00,WUHU216HW,2013-03-05 06:40:00,
2013-03-05 01:45:00,48.4,39.8,30.15,ENE,68,0.0,0.0,72,0.00,,,0.00,WUHU216HW,2013-03-05 06:45:00,
2013-03-05 01:50:00,48.4,39.8,30.15,ENE,68,0.0,0.0,72,0.00,,,0.00,WUHU216HW,2013-03-05 06:50:00,
2013-03-05 01:55:00,48.6,40.0,30.15,NW,315,0.0,0.0,72,0.00,,,0.00,WUHU216HW,2013-03-05 06:55:00,
2013-03-05 02:00:00,48.6,40.2,30.15,NW,315,0.0,0.0,73,0.00,,,0.00,WUHU216HW,2013-03-05 07:00:00,
2013-03-05 02:05:00,48.8,40.2,30.15,NW,315,0.0,0.0,72,0.00,,,0.00,WUHU216HW,2013-03-05 07:05:00,
2013-03-05 02:10:00,48.8,40.4,30.16,NW,315,0.0,0.0,73,0.00,,,0.00,WUHU216HW,2013-03-05 07:10:00,
2013-03-05 02:15:00,48.8,40.4,30.16,NW,315,0.0,0.0,73,0.00,,,0.00,WUHU216HW,2013-03-05 07:15:00,
2013-03-05 02:20:00,48.8,40.4,30.16,NW,315,0.0,0.0,73,0.00,,,0.00,WUHU216HW,2013-03-05 07:20:00,
2013-03-05 02:25:00,48.6,40.2,30.16,WNW,293,0.0,0.0,73,0.00,,,0.00,WUHU216HW,2013-03-05 07:25:00,
2013-03-05 02:30:00,48.6,40.2,30.16,NW,315,0.0,0.0,73,0.00,,,0.00,WUHU216HW,2013-03-05 07:30:00,
2013-03-05 02:35:00,48.4,40.1,30.16,NW,315,0.0,0.0,73,0.00,,,0.00,WUHU216HW,2013-03-05 07:35:00,
2013-03-05 02:40:00,48.2,39.9,30.16,NW,315,0.0,0.0,73,0.00,,,0.00,WUHU216HW,2013-03-05 07:40:00,
2013-03-05 02:45:00,48.2,39.9,30.16,NW,315,0.0,0.0,73,0.00,,,0.00,WUHU216HW,2013-03-05 07:45:00,
2013-03-05 02:50:00,48.1,40.1,30.16,NW,315,0.0,0.0,74,0.00,,,0.00,WUHU216HW,2013-03-05 07:50:00,
2013-03-05 02:55:00,47.9,39.6,30.15,NW,315,0.0,0.0,73,0.00,,,0.00,WUHU216HW,2013-03-05 07:55:00,
2013-03-05 03:00:00,47.9,40.0,30.15,NW,315,0.0,0.0,74,0.00,,,0.00,WUHU216HW,2013-03-05 08:00:00,
2013-03-05 03:05:00,47.7,39.8,30.15,NW,315,0.0,0.0,74,0.00,,,0.00,WUHU216HW,2013-03-05 08:05:00,
2013-03-05 03:10:00,47.7,39.8,30.15,NW,315,0.0,0.0,74,0.00,,,0.00,WUHU216HW,2013-03-05 08:10:00,
2013-03-05 03:15:00,47.7,39.8,30.15,NW,315,0.0,0.0,74,0.00,,,0.00,WUHU216HW,2013-03-05 08:15:00,
2013-03-05 03:20:00,47.5,39.6,30.15,NW,315,0.0,0.0,74,0.00,,,0.00,WUHU216HW,2013-03-05 08:20:00,
2013-03-05 03:25:00,47.5,39.6,30.15,NW,315,0.0,0.0,74,0.00,,,0.00,WUHU216HW,2013-03-05 08:25:00,
2013-03-05 03:30:00,47.5,40.0,30.15,NW,315,0.0,0.0,75,0.00,,,0.00,WUHU216HW,2013-03-05 08:30:00,
2013-03-05 03:35:00,47.5,40.0,30.15,NW,315,0.0,0.0,75,0.00,,,0.00,WUHU216HW,2013-03-05 08:35:00,
2013-03-05 03:40:00,47.5,40.0,30.15,NW,315,0.0,0.0,75,0.00,,,0.00,WUHU216HW,2013-03-05 08:40:00,
2013-03-05 03:45:00,47.3,39.8,30.15,NW,315,0.0,0.0,75,0.00,,,0.00,WUHU216HW,2013-03-05 08:45:00,
2013-03-05 03:50:00,47.3,39.8,30.15,NW,315,0.0,0.0,75,0.00,,,0.00,WUHU216HW,2013-03-05 08:50:00,
2013-03-05 03:55:00,47.3,39.8,30.15,NW,315,0.0,0.0,75,0.00,,,0.00,WUHU216HW,2013-03-05 08:55:00,
2013-03-05 04:00:00,47.2,39.6,30.15,NW,315,0.0,0.0,75,0.00,,,0.00,WUHU216HW,2013-03-05 09:00:00,
2013-03-05 04:05:00,47.2,39.6,30.15,NW,315,0.0,0.0,75,0.00,,,0.00,WUHU216HW,2013-03-05 09:05:00,
2013-03-05 04:10:00,47.0,39.4,30.15,NW,315,0.0,0.0,75,0.00,,,0.00,WUHU216HW,2013-03-05 09:10:00,
2013-03-05 04:15:00,47.0,39.8,30.15,NW,315,0.0,0.0,76,0.00,,,0.00,WUHU216HW,2013-03-05 09:15:00,
2013-03-05 04:20:00,46.8,39.6,30.15,NW,315,0.0,0.0,76,0.00,,,0.00,WUHU216HW,2013-03-05 09:20:00,
2013-03-05 04:25:00,46.8,39.6,30.15,NNE,23,0.0,0.0,76,0.00,,,0.00,WUHU216HW,2013-03-05 09:25:00,
2013-03-05 04:30:00,46.6,39.2,30.15,NE,45,0.0,0.0,75,0.00,,,0.00,WUHU216HW,2013-03-05 09:30:00,
2013-03-05 04:35:00,46.3,38.8,30.14,NE,45,0.0,0.0,75,0.00,,,0.00,WUHU216HW,2013-03-05 09:35:00,
2013-03-05 04:40:00,45.9,38.4,30.14,NE,45,0.0,0.0,75,0.00,,,0.00,WUHU216HW,2013-03-05 09:40:00,
2013-03-05 04:45:00,45.9,38.8,30.14,NE,45,0.0,0.0,76,0.00,,,0.00,WUHU216HW,2013-03-05 09:45:00,
2013-03-05 04:50:00,46.1,39.0,30.14,NNE,23,0.0,0.0,76,0.00,,,0.00,WUHU216HW,2013-03-05 09:50:00,
2013-03-05 04:55:00,46.3,39.2,30.14,NNE,23,0.0,0.0,76,0.00,,,0.00,WUHU216HW,2013-03-05 09:55:00,
2013-03-05 05:00:00,46.4,39.3,30.14,NNE,23,0.0,0.0,76,0.00,,,0.00,WUHU216HW,2013-03-05 10:00:00,
2013-03-05 05:05:00,46.4,39.3,30.14,NNE,23,0.0,0.0,76,0.00,,,0.00,WUHU216HW,2013-03-05 10:05:00,
2013-03-05 05:10:00,46.4,39.0,30.15,ENE,68,0.0,0.0,75,0.00,,,0.00,WUHU216HW,2013-03-05 10:10:00,
2013-03-05 05:15:00,46.4,39.0,30.15,ENE,68,0.0,0.0,75,0.00,,,0.00,WUHU216HW,2013-03-05 10:15:00,
2013-03-05 05:20:00,46.4,39.0,30.15,ENE,68,0.0,0.0,75,0.00,,,0.00,WUHU216HW,2013-03-05 10:20:00,
2013-03-05 05:25:00,46.4,39.0,30.15,ENE,68,0.0,0.0,75,0.00,,,0.00,WUHU216HW,2013-03-05 10:25:00,
2013-03-05 05:30:00,46.6,39.2,30.15,ENE,68,0.0,0.0,75,0.00,,,0.00,WUHU216HW,2013-03-05 10:30:00,
2013-03-05 05:35:00,46.8,39.3,30.15,ENE,68,0.0,0.0,75,0.00,,,0.00,WUHU216HW,2013-03-05 10:35:00,
2013-03-05 05:40:00,47.0,39.4,30.15,ENE,68,0.0,0.0,75,0.00,,,0.00,WUHU216HW,2013-03-05 10:40:00,
2013-03-05 05:45:00,47.0,39.4,30.15,ENE,68,0.0,0.0,75,0.00,,,0.00,WUHU216HW,2013-03-05 10:45:00,
2013-03-05 05:50:00,47.2,39.6,30.15,SSE,158,0.0,0.0,75,0.00,,,0.00,WUHU216HW,2013-03-05 10:50:00,
2013-03-05 05:55:00,47.2,39.6,30.16,SSE,158,0.0,0.0,75,0.00,,,0.00,WUHU216HW,2013-03-05 10:55:00,
2013-03-05 06:00:00,47.2,39.6,30.16,SSE,158,0.0,0.0,75,0.00,,,0.00,WUHU216HW,2013-03-05 11:00:00,
2013-03-05 06:05:00,47.3,39.8,30.16,SSE,158,0.0,0.0,75,0.00,,,0.00,WUHU216HW,2013-03-05 11:05:00,
2013-03-05 06:10:00,47.2,39.6,30.16,SSE,158,0.0,0.0,75,0.00,,,0.00,WUHU216HW,2013-03-05 11:10:00,
2013-03-05 06:16:00,47.2,39.6,30.16,SSE,158,0.0,0.0,75,0.00,,,0.00,WUHU216HW,2013-03-05 11:16:00,
2013-03-05 06:21:00,47.0,39.4,30.17,SSE,158,0.0,0.0,75,0.00,,,0.00,WUHU216HW,2013-03-05 11:21:00,
2013-03-05 06:26:00,47.0,39.4,30.16,SSE,158,0.0,0.0,75,0.00,,,0.00,WUHU216HW,2013-03-05 11:26:00,
2013-03-05 06:30:00,47.0,39.4,30.17,SSE,158,0.0,0.0,75,0.00,,,0.00,WUHU216HW,2013-03-05 11:30:00,
2013-03-05 06:35:00,46.8,39.3,30.17,SSE,158,0.0,0.0,75,0.00,,,0.00,WUHU216HW,2013-03-05 11:35:00,
2013-03-05 06:40:00,46.8,39.3,30.17,SSE,158,0.0,0.0,75,0.00,,,0.00,WUHU216HW,2013-03-05 11:40:00,
2013-03-05 06:45:00,46.8,39.3,30.17,SSE,158,0.0,0.0,75,0.00,,,0.00,WUHU216HW,2013-03-05 11:45:00,
2013-03-05 06:50:00,46.8,39.3,30.17,SSE,158,0.0,0.0,75,0.00,,,0.00,WUHU216HW,2013-03-05 11:50:00,
2013-03-05 06:55:00,46.8,39.3,30.18,SSE,158,0.0,0.0,75,0.00,,,0.00,WUHU216HW,2013-03-05 11:55:00,
2013-03-05 07:00:00,46.8,39.3,30.18,SSE,158,0.0,0.0,75,0.00,,,0.00,WUHU216HW,2013-03-05 12:00:00,
2013-03-05 07:05:00,46.8,39.3,30.18,SSE,158,0.0,0.0,75,0.00,,,0.00,WUHU216HW,2013-03-05 12:05:00,
2013-03-05 07:10:00,46.8,39.3,30.18,SSE,158,0.0,0.0,75,0.00,,,0.00,WUHU216HW,2013-03-05 12:10:00,
2013-03-05 07:15:00,46.8,39.3,30.18,SSE,158,0.0,0.0,75,0.00,,,0.00,WUHU216HW,2013-03-05 12:15:00,
2013-03-05 07:20:00,46.8,39.3,30.18,SSE,158,0.0,0.0,75,0.00,,,0.00,WUHU216HW,2013-03-05 12:20:00,
2013-03-05 07:25:00,47.0,39.4,30.18,ESE,113,0.0,0.0,75,0.00,,,0.00,WUHU216HW,2013-03-05 12:25:00,
2013-03-05 07:30:00,46.8,39.6,30.18,ESE,113,0.0,0.0,76,0.00,,,0.00,WUHU216HW,2013-03-05 12:30:00,
2013-03-05 07:35:00,47.0,39.8,30.18,ESE,113,0.0,0.0,76,0.00,,,0.00,WUHU216HW,2013-03-05 12:35:00,
2013-03-05 07:40:00,47.2,40.0,30.18,ESE,113,0.0,0.0,76,0.00,,,0.00,WUHU216HW,2013-03-05 12:40:00,
2013-03-05 07:45:00,47.7,40.8,30.18,ESE,113,0.0,0.0,77,0.00,,,0.00,WUHU216HW,2013-03-05 12:45:00,
2013-03-05 07:50:00,48.1,41.1,30.18,ESE,113,0.0,0.0,77,0.00,,,0.00,WUHU216HW,2013-03-05 12:50:00,
2013-03-05 07:55:00,48.2,41.6,30.18,ESE,113,0.0,0.0,78,0.00,,,0.00,WUHU216HW,2013-03-05 12:55:00,
2013-03-05 08:00:00,48.8,42.1,30.18,ESE,113,0.0,0.0,78,0.00,,,0.00,WUHU216HW,2013-03-05 13:00:00,
2013-03-05 08:05:00,49.3,42.7,30.18,ESE,113,0.0,0.0,78,0.00,,,0.00,WUHU216HW,2013-03-05 13:05:00,
2013-03-05 08:10:00,49.9,43.6,30.18,East,90,0.0,0.0,79,0.00,,,0.00,WUHU216HW,2013-03-05 13:10:00,
2013-03-05 08:15:00,50.6,44.3,30.18,SE,135,0.0,0.4,79,0.00,,,0.00,WUHU216HW,2013-03-05 13:15:00,
2013-03-05 08:20:00,51.1,44.8,30.19,SE,135,0.0,0.4,79,0.00,,,0.00,WUHU216HW,2013-03-05 13:20:00,
2013-03-05 08:25:00,52.0,45.7,30.19,East,90,0.4,0.7,79,0.00,,,0.00,WUHU216HW,2013-03-05 13:25:00,
2013-03-05 08:30:00,52.9,46.3,30.19,SE,135,0.4,0.9,78,0.00,,,0.00,WUHU216HW,2013-03-05 13:30:00,
2013-03-05 08:35:00,53.6,47.0,30.18,ESE,113,0.7,1.1,78,0.00,,,0.00,WUHU216HW,2013-03-05 13:35:00,
2013-03-05 08:40:00,54.5,47.4,30.18,SSE,158,0.0,1.1,77,0.00,,,0.00,WUHU216HW,2013-03-05 13:40:00,
2013-03-05 08:45:00,55.1,47.6,30.19,ESE,113,0.7,1.1,76,0.00,,,0.00,WUHU216HW,2013-03-05 13:45:00,
2013-03-05 08:50:00,55.8,48.3,30.19,SSE,158,0.9,1.1,76,0.00,,,0.00,WUHU216HW,2013-03-05 13:50:00,
2013-03-05 08:55:00,56.5,48.6,30.19,SE,135,0.4,1.1,75,0.00,,,0.00,WUHU216HW,2013-03-05 13:55:00,
2013-03-05 09:00:00,57.2,49.0,30.19,ESE,113,0.4,1.3,74,0.00,,,0.00,WUHU216HW,2013-03-05 14:00:00,
2013-03-05 09:05:00,58.0,49.3,30.19,SSE,158,0.7,1.6,73,0.00,,,0.00,WUHU216HW,2013-03-05 14:05:00,
2013-03-05 09:10:00,58.3,49.3,30.19,ENE,68,0.7,1.8,72,0.00,,,0.00,WUHU216HW,2013-03-05 14:10:00,
2013-03-05 09:15:00,59.0,50.0,30.19,SSE,158,0.2,1.8,72,0.00,,,0.00,WUHU216HW,2013-03-05 14:15:00,
2013-03-05 09:20:00,59.6,50.2,30.19,SE,135,0.4,1.8,71,0.00,,,0.00,WUHU216HW,2013-03-05 14:20:00,
2013-03-05 09:25:00,60.1,50.4,30.19,ESE,113,0.7,1.8,70,0.00,,,0.00,WUHU216HW,2013-03-05 14:25:00,
2013-03-05 09:30:00,60.7,50.9,30.19,SSE,158,0.2,1.8,70,0.00,,,0.00,WUHU216HW,2013-03-05 14:30:00,
2013-03-05 09:35:00,61.2,51.0,30.19,SW,225,1.1,2.0,69,0.00,,,0.00,WUHU216HW,2013-03-05 14:35:00,
2013-03-05 09:41:00,61.9,52.1,30.19,ESE,113,0.9,2.2,70,0.00,,,0.00,WUHU216HW,2013-03-05 14:41:00,
2013-03-05 09:45:00,62.3,52.7,30.19,WSW,248,1.8,2.5,71,0.00,,,0.00,WUHU216HW,2013-03-05 14:45:00,
2013-03-05 09:51:00,63.0,53.1,30.19,WSW,248,0.4,2.5,70,0.00,,,0.00,WUHU216HW,2013-03-05 14:51:00,
2013-03-05 09:55:00,63.7,53.8,30.19,SW,225,0.0,1.8,70,0.00,,,0.00,WUHU216HW,2013-03-05 14:55:00,
2013-03-05 10:01:00,64.3,54.4,30.19,West,270,1.1,1.8,70,0.00,,,0.00,WUHU216HW,2013-03-05 15:01:00,
2013-03-05 10:06:00,64.8,54.9,30.19,North,0,0.7,2.5,70,0.00,,,0.00,WUHU216HW,2013-03-05 15:06:00,
2013-03-05 10:11:00,65.3,55.4,30.19,SW,225,0.9,2.5,70,0.00,,,0.00,WUHU216HW,2013-03-05 15:11:00,
2013-03-05 10:16:00,65.9,55.5,30.19,SSE,158,1.1,2.2,69,0.00,,,0.00,WUHU216HW,2013-03-05 15:16:00,
2013-03-05 10:21:00,66.2,54.9,30.19,ESE,113,2.7,3.1,67,0.00,,,0.00,WUHU216HW,2013-03-05 15:21:00,
2013-03-05 10:26:00,66.1,54.4,30.18,SSE,158,1.1,3.1,66,0.00,,,0.00,WUHU216HW,2013-03-05 15:26:00,
2013-03-05 10:31:00,66.2,54.9,30.19,WSW,248,3.4,3.4,67,0.00,,,0.00,WUHU216HW,2013-03-05 15:31:00,
2013-03-05 10:36:00,66.8,55.4,30.19,WNW,293,1.1,4.0,67,0.00,,,0.00,WUHU216HW,2013-03-05 15:36:00,
2013-03-05 10:41:00,67.1,55.4,30.19,ESE,113,0.4,4.0,66,0.00,,,0.00,WUHU216HW,2013-03-05 15:41:00,
2013-03-05 10:46:00,67.3,55.5,30.19,ESE,113,1.8,2.5,66,0.00,,,0.00,WUHU216HW,2013-03-05 15:46:00,
2013-03-05 10:51:00,67.5,55.7,30.19,WNW,293,0.4,2.2,66,0.00,,,0.00,WUHU216HW,2013-03-05 15:51:00,
2013-03-05 10:56:00,68.0,56.3,30.19,SW,225,1.1,2.2,66,0.00,,,0.00,WUHU216HW,2013-03-05 15:56:00,
2013-03-05 11:01:00,68.8,56.5,30.19,ESE,113,1.3,1.8,65,0.00,,,0.00,WUHU216HW,2013-03-05 16:01:00,
2013-03-05 11:06:00,69.5,56.8,30.19,WSW,248,1.1,2.9,64,0.00,,,0.00,WUHU216HW,2013-03-05 16:06:00,
2013-03-05 11:11:00,70.0,56.9,30.19,West,270,1.1,3.1,63,0.00,,,0.00,WUHU216HW,2013-03-05 16:11:00,
2013-03-05 11:16:00,70.2,57.1,30.20,WSW,248,2.2,3.1,63,0.00,,,0.00,WUHU216HW,2013-03-05 16:16:00,
2013-03-05 11:21:00,70.7,56.7,30.20,SE,135,1.3,2.2,61,0.00,,,0.00,WUHU216HW,2013-03-05 16:21:00,
2013-03-05 11:26:00,70.4,55.9,30.19,South,180,0.4,3.4,60,0.00,,,0.00,WUHU216HW,2013-03-05 16:26:00,
2013-03-05 11:31:00,70.0,56.4,30.19,West,270,0.9,3.4,62,0.00,,,0.00,WUHU216HW,2013-03-05 16:31:00,
2013-03-05 11:36:00,70.6,56.5,30.19,SW,225,2.9,2.9,61,0.00,,,0.00,WUHU216HW,2013-03-05 16:36:00,
2013-03-05 11:41:00,70.7,56.7,30.19,WNW,293,0.4,2.9,61,0.00,,,0.00,WUHU216HW,2013-03-05 16:41:00,
2013-03-05 11:46:00,71.3,57.2,30.19,ENE,68,0.4,3.4,61,0.00,,,0.00,WUHU216HW,2013-03-05 16:46:00,
2013-03-05 11:51:00,71.5,56.9,30.19,ESE,113,1.8,3.4,60,0.00,,,0.00,WUHU216HW,2013-03-05 16:51:00,
2013-03-05 11:56:00,71.1,57.0,30.19,SE,135,0.2,2.5,61,0.00,,,0.00,WUHU216HW,2013-03-05 16:56:00,
2013-03-05 12:01:00,71.5,57.3,30.19,WSW,248,0.7,3.4,61,0.00,,,0.00,WUHU216HW,2013-03-05 17:01:00,
2013-03-05 12:06:00,72.2,58.0,30.18,SE,135,1.3,3.4,61,0.00,,,0.00,WUHU216HW,2013-03-05 17:06:00,
2013-03-05 12:11:00,72.9,58.2,30.18,SW,225,1.3,1.8,60,0.00,,,0.00,WUHU216HW,2013-03-05 17:11:00,
2013-03-05 12:16:00,73.4,58.1,30.18,SE,135,1.3,1.8,59,0.00,,,0.00,WUHU216HW,2013-03-05 17:16:00,
2013-03-05 12:21:00,73.8,58.1,30.18,SE,135,1.1,3.4,58,0.00,,,0.00,WUHU216HW,2013-03-05 17:21:00,
2013-03-05 12:26:00,73.8,58.1,30.18,West,270,2.0,3.4,58,0.00,,,0.00,WUHU216HW,2013-03-05 17:26:00,
2013-03-05 12:31:00,74.2,58.4,30.18,WSW,248,2.7,3.4,58,0.00,,,0.00,WUHU216HW,2013-03-05 17:31:00,
2013-03-05 12:36:00,74.0,57.7,30.17,SSE,158,0.9,2.7,57,0.00,,,0.00,WUHU216HW,2013-03-05 17:36:00,
2013-03-05 12:41:00,73.8,58.1,30.17,North,0,0.2,2.7,58,0.00,,,0.00,WUHU216HW,2013-03-05 17:41:00,
2013-03-05 12:46:00,74.3,58.1,30.17,WNW,293,0.2,2.0,57,0.00,,,0.00,WUHU216HW,2013-03-05 17:46:00,
2013-03-05 12:51:00,74.9,58.6,30.16,West,270,1.1,2.0,57,0.00,,,0.00,WUHU216HW,2013-03-05 17:51:00,
2013-03-05 12:56:00,74.9,58.2,30.16,WNW,293,0.0,2.9,56,0.00,,,0.00,WUHU216HW,2013-03-05 17:56:00,
2013-03-05 13:01:00,74.7,58.4,30.16,West,270,1.3,2.9,57,0.00,,,0.00,WUHU216HW,2013-03-05 18:01:00,
2013-03-05 13:06:00,74.9,58.6,30.16,WSW,248,3.1,3.1,57,0.00,,,0.00,WUHU216HW,2013-03-05 18:06:00,
2013-03-05 13:11:00,75.1,58.3,30.15,West,270,1.1,3.1,56,0.00,,,0.00,WUHU216HW,2013-03-05 18:11:00,
2013-03-05 13:16:00,75.4,58.6,30.15,WSW,248,1.6,3.1,56,0.00,,,0.00,WUHU216HW,2013-03-05 18:16:00,
2013-03-05 13:21:00,75.6,58.3,30.14,SSE,158,0.4,3.4,55,0.00,,,0.00,WUHU216HW,2013-03-05 18:21:00,
2013-03-05 13:26:00,75.6,58.8,30.14,SW,225,1.6,3.4,56,0.00,,,0.00,WUHU216HW,2013-03-05 18:26:00,
2013-03-05 13:31:00,75.4,58.2,30.14,West,270,2.5,2.7,55,0.00,,,0.00,WUHU216HW,2013-03-05 18:31:00,
2013-03-05 13:36:00,75.1,57.2,30.14,SSE,158,1.3,2.5,54,0.00,,,0.00,WUHU216HW,2013-03-05 18:36:00,
2013-03-05 13:41:00,74.9,57.6,30.14,ESE,113,1.8,2.7,55,0.00,,,0.00,WUHU216HW,2013-03-05 18:41:00,
2013-03-05 13:46:00,74.2,57.4,30.13,ESE,113,1.3,3.6,56,0.00,,,0.00,WUHU216HW,2013-03-05 18:46:00,
2013-03-05 13:51:00,74.2,56.9,30.13,ESE,113,3.8,5.4,55,0.00,,,0.00,WUHU216HW,2013-03-05 18:51:00,
2013-03-05 13:56:00,73.8,57.1,30.13,SE,135,0.7,5.4,56,0.00,,,0.00,WUHU216HW,2013-03-05 18:56:00,
2013-03-05 14:01:00,74.0,57.3,30.13,SSE,158,2.2,3.8,56,0.00,,,0.00,WUHU216HW,2013-03-05 19:01:00,
2013-03-05 14:06:00,74.0,57.3,30.13,SE,135,1.8,5.4,56,0.00,,,0.00,WUHU216HW,2013-03-05 19:06:00,
2013-03-05 14:11:00,73.4,56.7,30.13,South,180,1.3,5.4,56,0.00,,,0.00,WUHU216HW,2013-03-05 19:11:00,
2013-03-05 14:16:00,73.8,57.5,30.13,WSW,248,1.8,2.9,57,0.00,,,0.00,WUHU216HW,2013-03-05 19:16:00,
2013-03-05 14:21:00,73.8,57.1,30.13,WSW,248,3.4,4.0,56,0.00,,,0.00,WUHU216HW,2013-03-05 19:21:00,
2013-03-05 14:26:00,74.3,57.6,30.13,SE,135,0.9,4.0,56,0.00,,,0.00,WUHU216HW,2013-03-05 19:26:00,
2013-03-05 14:31:00,74.7,58.0,30.13,WSW,248,1.6,2.5,56,0.00,,,0.00,WUHU216HW,2013-03-05 19:31:00,
2013-03-05 14:36:00,74.9,57.6,30.13,SW,225,1.1,5.6,55,0.00,,,0.00,WUHU216HW,2013-03-05 19:36:00,
2013-03-05 14:41:00,74.7,56.9,30.13,SE,135,1.8,5.6,54,0.00,,,0.00,WUHU216HW,2013-03-05 19:41:00,
2013-03-05 14:46:00,74.5,57.2,30.12,SSW,203,1.8,3.4,55,0.00,,,0.00,WUHU216HW,2013-03-05 19:46:00,
2013-03-05 14:51:00,74.5,56.7,30.12,SE,135,2.2,2.9,54,0.00,,,0.00,WUHU216HW,2013-03-05 19:51:00,
2013-03-05 14:56:00,74.5,57.2,30.13,WSW,248,1.3,2.9,55,0.00,,,0.00,WUHU216HW,2013-03-05 19:56:00,
2013-03-05 15:01:00,74.3,57.1,30.13,WNW,293,1.1,3.4,55,0.00,,,0.00,WUHU216HW,2013-03-05 20:01:00,
2013-03-05 15:06:00,74.3,57.1,30.13,West,270,0.7,3.4,55,0.00,,,0.00,WUHU216HW,2013-03-05 20:06:00,
2013-03-05 15:11:00,74.3,57.1,30.13,SSW,203,2.0,2.7,55,0.00,,,0.00,WUHU216HW,2013-03-05 20:11:00,
2013-03-05 15:16:00,74.2,56.3,30.13,WSW,248,0.7,2.7,54,0.00,,,0.00,WUHU216HW,2013-03-05 20:16:00,
2013-03-05 15:21:00,73.8,56.5,30.13,East,90,0.9,3.4,55,0.00,,,0.00,WUHU216HW,2013-03-05 20:21:00,
2013-03-05 15:26:00,73.4,56.2,30.13,SW,225,1.8,3.4,55,0.00,,,0.00,WUHU216HW,2013-03-05 20:26:00,
2013-03-05 15:31:00,73.3,56.0,30.13,SSE,158,1.8,3.4,55,0.00,,,0.00,WUHU216HW,2013-03-05 20:31:00,
2013-03-05 15:35:00,72.9,56.2,30.13,SSE,158,0.2,2.9,56,0.00,,,0.00,WUHU216HW,2013-03-05 20:35:00,
2013-03-05 15:40:00,73.1,56.3,30.13,West,270,1.1,2.5,56,0.00,,,0.00,WUHU216HW,2013-03-05 20:40:00,
2013-03-05 15:46:00,72.7,56.0,30.13,SE,135,1.3,2.9,56,0.00,,,0.00,WUHU216HW,2013-03-05 20:46:00,
2013-03-05 15:51:00,72.2,56.1,30.13,SW,225,3.4,3.4,57,0.00,,,0.00,WUHU216HW,2013-03-05 20:51:00,
2013-03-05 15:56:00,72.0,55.9,30.13,ESE,113,0.4,3.8,57,0.00,,,0.00,WUHU216HW,2013-03-05 20:56:00,
2013-03-05 16:01:00,71.8,56.3,30.13,SW,225,1.3,3.8,58,0.00,,,0.00,WUHU216HW,2013-03-05 21:01:00,
2013-03-05 16:06:00,72.0,56.3,30.13,South,180,1.8,4.0,58,0.00,,,0.00,WUHU216HW,2013-03-05 21:06:00,
2013-03-05 16:11:00,71.3,55.7,30.13,South,180,0.7,4.0,58,0.00,,,0.00,WUHU216HW,2013-03-05 21:11:00,
2013-03-05 16:16:00,71.1,56.1,30.13,WSW,248,1.8,2.5,59,0.00,,,0.00,WUHU216HW,2013-03-05 21:16:00,
2013-03-05 16:21:00,71.1,56.1,30.12,SSE,158,0.4,3.8,59,0.00,,,0.00,WUHU216HW,2013-03-05 21:21:00,
2013-03-05 16:26:00,71.1,56.1,30.12,West,270,0.4,3.8,59,0.00,,,0.00,WUHU216HW,2013-03-05 21:26:00,
2013-03-05 16:31:00,70.9,55.9,30.12,SSW,203,1.1,3.4,59,0.00,,,0.00,WUHU216HW,2013-03-05 21:31:00,
2013-03-05 16:36:00,71.1,56.6,30.12,WNW,293,1.1,2.5,60,0.00,,,0.00,WUHU216HW,2013-03-05 21:36:00,
2013-03-05 16:41:00,71.3,56.7,30.12,SW,225,1.8,3.1,60,0.00,,,0.00,WUHU216HW,2013-03-05 21:41:00,
2013-03-05 16:46:00,71.5,56.9,30.12,SW,225,1.8,3.1,60,0.00,,,0.00,WUHU216HW,2013-03-05 21:46:00,
2013-03-05 16:51:00,71.6,57.1,30.12,WNW,293,0.2,2.7,60,0.00,,,0.00,WUHU216HW,2013-03-05 21:51:00,
2013-03-05 16:56:00,71.6,57.1,30.12,WNW,293,1.6,1.8,60,0.00,,,0.00,WUHU216HW,2013-03-05 21:56:00,
2013-03-05 17:01:00,71.8,57.3,30.12,ESE,113,0.4,1.8,60,0.00,,,0.00,WUHU216HW,2013-03-05 22:01:00,
2013-03-05 17:06:00,71.8,57.7,30.12,SSW,203,1.8,1.8,61,0.00,,,0.00,WUHU216HW,2013-03-05 22:06:00,
2013-03-05 17:11:00,71.8,57.7,30.12,WSW,248,1.8,2.9,61,0.00,,,0.00,WUHU216HW,2013-03-05 22:11:00,
2013-03-05 17:16:00,72.2,58.0,30.12,North,0,0.4,2.9,61,0.00,,,0.00,WUHU216HW,2013-03-05 22:16:00,
2013-03-05 17:21:00,72.4,57.7,30.12,WSW,248,0.7,1.8,60,0.00,,,0.00,WUHU216HW,2013-03-05 22:21:00,
2013-03-05 17:25:00,72.9,58.2,30.12,SSE,158,0.9,3.1,60,0.00,,,0.00,WUHU216HW,2013-03-05 22:25:00,
2013-03-05 17:30:00,73.1,58.3,30.12,WSW,248,2.5,3.1,60,0.00,,,0.00,WUHU216HW,2013-03-05 22:30:00,
2013-03-05 17:35:00,72.9,57.7,30.12,WSW,248,1.1,2.5,59,0.00,,,0.00,WUHU216HW,2013-03-05 22:35:00,
2013-03-05 17:40:00,72.5,57.9,30.12,SE,135,1.1,2.5,60,0.00,,,0.00,WUHU216HW,2013-03-05 22:40:00,
2013-03-05 17:46:00,71.6,57.5,30.11,SE,135,0.0,2.5,61,0.00,,,0.00,WUHU216HW,2013-03-05 22:46:00,
2013-03-05 17:51:00,70.7,56.7,30.11,East,90,1.3,2.5,61,0.00,,,0.00,WUHU216HW,2013-03-05 22:51:00,
2013-03-05 17:56:00,69.8,56.7,30.11,SSE,158,0.4,2.5,63,0.00,,,0.00,WUHU216HW,2013-03-05 22:56:00,
2013-03-05 18:01:00,69.1,56.4,30.11,South,180,0.4,2.7,64,0.00,,,0.00,WUHU216HW,2013-03-05 23:01:00,
2013-03-05 18:06:00,68.8,56.5,30.11,SSW,203,0.4,2.7,65,0.00,,,0.00,WUHU216HW,2013-03-05 23:06:00,
2013-03-05 18:11:00,68.4,56.2,30.11,SW,225,1.6,1.6,65,0.00,,,0.00,WUHU216HW,2013-03-05 23:11:00,
2013-03-05 18:16:00,68.0,57.1,30.10,South,180,0.9,1.6,68,0.00,,,0.00,WUHU216HW,2013-03-05 23:16:00,
2013-03-05 18:20:00,67.7,56.7,30.10,SE,135,1.3,2.2,68,0.00,,,0.00,WUHU216HW,2013-03-05 23:20:00,
2013-03-05 18:26:00,67.3,56.8,30.10,SSW,203,1.3,2.2,69,0.00,,,0.00,WUHU216HW,2013-03-05 23:26:00,
2013-03-05 18:30:00,67.3,56.8,30.10,ESE,113,0.9,1.3,69,0.00,,,0.00,WUHU216HW,2013-03-05 23:30:00,
2013-03-05 18:36:00,67.1,56.6,30.10,SE,135,0.4,1.3,69,0.00,,,0.00,WUHU216HW,2013-03-05 23:36:00,
2013-03-05 18:40:00,66.8,56.3,30.10,East,90,0.2,1.6,69,0.00,,,0.00,WUHU216HW,2013-03-05 23:40:00,
2013-03-05 18:45:00,66.6,56.5,30.10,SW,225,0.7,1.6,70,0.00,,,0.00,WUHU216HW,2013-03-05 23:45:00,
2013-03-05 18:50:00,66.2,56.5,30.10,ESE,113,0.0,1.1,71,0.00,,,0.00,WUHU216HW,2013-03-05 23:50:00,
2013-03-05 18:55:00,66.2,56.5,30.10,SSE,158,0.4,0.7,71,0.00,,,0.00,WUHU216HW,2013-03-05 23:55:00,
2013-03-05 19:00:00,66.1,56.3,30.10,SE,135,0.0,0.4,71,0.00,,,0.00,WUHU216HW,2013-03-06 00:00:00,
2013-03-05 19:05:00,65.9,56.6,30.09,SSE,158,0.0,1.1,72,0.00,,,0.00,WUHU216HW,2013-03-06 00:05:00,
2013-03-05 19:10:00,65.9,56.6,30.09,SSE,158,0.0,1.1,72,0.00,,,0.00,WUHU216HW,2013-03-06 00:10:00,
2013-03-05 19:15:00,65.7,57.2,30.09,SE,135,0.2,0.9,74,0.00,,,0.00,WUHU216HW,2013-03-06 00:15:00,
2013-03-05 19:20:00,65.5,57.0,30.09,SE,135,0.4,0.9,74,0.00,,,0.00,WUHU216HW,2013-03-06 00:20:00,
2013-03-05 19:25:00,65.5,57.0,30.09,East,90,0.7,0.7,74,0.00,,,0.00,WUHU216HW,2013-03-06 00:25:00,
2013-03-05 19:30:00,65.3,56.8,30.09,SE,135,0.0,1.6,74,0.00,,,0.00,WUHU216HW,2013-03-06 00:30:00,
2013-03-05 19:35:00,65.3,56.8,30.09,ESE,113,0.4,1.6,74,0.00,,,0.00,WUHU216HW,2013-03-06 00:35:00,
2013-03-05 19:40:00,65.2,57.1,30.09,SSE,158,0.2,1.3,75,0.00,,,0.00,WUHU216HW,2013-03-06 00:40:00,
2013-03-05 19:45:00,65.2,57.1,30.09,South,180,0.7,1.3,75,0.00,,,0.00,WUHU216HW,2013-03-06 00:45:00,
2013-03-05 19:50:00,65.2,57.4,30.09,SSE,158,0.7,1.1,76,0.00,,,0.00,WUHU216HW,2013-03-06 00:50:00,
2013-03-05 19:55:00,65.0,57.3,30.09,SSE,158,0.0,1.1,76,0.00,,,0.00,WUHU216HW,2013-03-06 00:55:00,
2013-03-05 20:00:00,65.0,57.6,30.09,SW,225,0.0,1.3,77,0.00,,,0.00,WUHU216HW,2013-03-06 01:00:00,
2013-03-05 20:05:00,64.8,57.4,30.09,ESE,113,0.0,1.3,77,0.00,,,0.00,WUHU216HW,2013-03-06 01:05:00,
2013-03-05 20:10:00,64.8,57.4,30.08,SSW,203,0.7,1.1,77,0.00,,,0.00,WUHU216HW,2013-03-06 01:10:00,
2013-03-05 20:16:00,64.8,57.8,30.08,ESE,113,0.0,1.3,78,0.00,,,0.00,WUHU216HW,2013-03-06 01:16:00,
2013-03-05 20:21:00,64.8,58.5,30.08,SE,135,1.1,1.3,80,0.00,,,0.00,WUHU216HW,2013-03-06 01:21:00,
2013-03-05 20:26:00,64.8,58.2,30.08,SSW,203,0.0,3.1,79,0.00,,,0.00,WUHU216HW,2013-03-06 01:26:00,
2013-03-05 20:30:00,64.6,58.3,30.08,ENE,68,1.1,3.1,80,0.00,,,0.00,WUHU216HW,2013-03-06 01:30:00,
2013-03-05 20:35:00,64.6,58.7,30.08,SSE,158,0.4,1.8,81,0.00,,,0.00,WUHU216HW,2013-03-06 01:35:00,
2013-03-05 20:40:00,64.6,59.1,30.08,SE,135,0.7,1.8,82,0.00,,,0.00,WUHU216HW,2013-03-06 01:40:00,
2013-03-05 20:45:00,64.6,58.3,30.08,SSE,158,0.4,2.5,80,0.00,,,0.00,WUHU216HW,2013-03-06 01:45:00,
2013-03-05 20:50:00,64.6,59.1,30.07,ESE,113,0.7,2.5,82,0.00,,,0.00,WUHU216HW,2013-03-06 01:50:00,
2013-03-05 20:55:00,64.6,59.1,30.07,NNE,23,0.9,2.5,82,0.00,,,0.00,WUHU216HW,2013-03-06 01:55:00,
2013-03-05 21:00:00,64.6,59.1,30.08,SSE,158,0.4,2.5,82,0.00,,,0.00,WUHU216HW,2013-03-06 02:00:00,
2013-03-05 21:05:00,64.6,59.1,30.07,SSE,158,0.9,3.8,82,0.00,,,0.00,WUHU216HW,2013-03-06 02:05:00,
2013-03-05 21:10:00,64.6,59.1,30.07,ENE,68,1.3,3.8,82,0.00,,,0.00,WUHU216HW,2013-03-06 02:10:00,
2013-03-05 21:15:00,64.6,59.1,30.07,ESE,113,1.1,2.5,82,0.00,,,0.00,WUHU216HW,2013-03-06 02:15:00,
2013-03-05 21:20:00,64.8,59.5,30.07,SSE,158,0.4,2.2,83,0.00,,,0.00,WUHU216HW,2013-03-06 02:20:00,
2013-03-05 21:25:00,64.6,59.1,30.07,SSW,203,1.3,2.5,82,0.00,,,0.00,WUHU216HW,2013-03-06 02:25:00,
2013-03-05 21:30:00,64.6,59.1,30.08,South,180,0.2,2.5,82,0.00,,,0.00,WUHU216HW,2013-03-06 02:30:00,
2013-03-05 21:35:00,64.6,59.3,30.08,SSE,158,0.4,2.5,83,0.00,,,0.00,WUHU216HW,2013-03-06 02:35:00,
2013-03-05 21:40:00,64.6,59.3,30.08,SSW,203,1.1,2.5,83,0.00,,,0.00,WUHU216HW,2013-03-06 02:40:00,
2013-03-05 21:45:00,64.6,59.3,30.07,SSE,158,0.7,2.7,83,0.00,,,0.00,WUHU216HW,2013-03-06 02:45:00,
2013-03-05 21:50:00,64.6,59.1,30.08,SSE,158,0.2,2.7,82,0.00,,,0.00,WUHU216HW,2013-03-06 02:50:00,
2013-03-05 21:55:00,64.6,59.3,30.08,SE,135,0.2,2.2,83,0.00,,,0.00,WUHU216HW,2013-03-06 02:55:00,
2013-03-05 22:00:00,64.6,59.3,30.07,East,90,0.9,2.5,83,0.00,,,0.00,WUHU216HW,2013-03-06 03:00:00,
2013-03-05 22:05:00,64.6,59.7,30.07,SSE,158,1.1,2.5,84,0.00,,,0.00,WUHU216HW,2013-03-06 03:05:00,
2013-03-05 22:10:00,64.6,59.7,30.07,SSW,203,1.1,2.2,84,0.00,,,0.00,WUHU216HW,2013-03-06 03:10:00,
2013-03-05 22:15:00,64.6,60.0,30.07,WSW,248,0.4,2.2,85,0.00,,,0.00,WUHU216HW,2013-03-06 03:15:00,
2013-03-05 22:20:00,64.6,59.7,30.07,WSW,248,1.3,1.8,84,0.00,,,0.00,WUHU216HW,2013-03-06 03:20:00,
2013-03-05 22:25:00,64.6,60.0,30.08,SSW,203,0.7,2.0,85,0.00,,,0.00,WUHU216HW,2013-03-06 03:25:00,
2013-03-05 22:30:00,64.8,60.2,30.08,SE,135,0.4,2.5,85,0.00,,,0.00,WUHU216HW,2013-03-06 03:30:00,
2013-03-05 22:35:00,64.8,60.2,30.08,WSW,248,0.7,2.5,85,0.00,,,0.00,WUHU216HW,2013-03-06 03:35:00,
2013-03-05 22:40:00,64.8,60.2,30.08,SSW,203,0.7,2.5,85,0.00,,,0.00,WUHU216HW,2013-03-06 03:40:00,
2013-03-05 22:45:00,65.0,60.4,30.07,South,180,1.1,2.5,85,0.00,,,0.00,WUHU216HW,2013-03-06 03:45:00,
2013-03-05 22:50:00,65.2,60.8,30.07,SSW,203,1.1,3.6,86,0.00,,,0.00,WUHU216HW,2013-03-06 03:50:00,
2013-03-05 22:55:00,65.2,60.6,30.07,SSE,158,0.4,3.6,85,0.00,,,0.00,WUHU216HW,2013-03-06 03:55:00,
2013-03-05 23:00:00,65.2,60.8,30.07,ESE,113,0.0,2.7,86,0.00,,,0.00,WUHU216HW,2013-03-06 04:00:00,
2013-03-05 23:05:00,65.3,60.8,30.07,WSW,248,0.9,2.7,85,0.00,,,0.00,WUHU216HW,2013-03-06 04:05:00,
2013-03-05 23:10:00,65.3,60.8,30.07,South,180,1.6,2.5,85,0.00,,,0.00,WUHU216HW,2013-03-06 04:10:00,
2013-03-05 23:15:00,65.3,60.8,30.07,SE,135,0.0,1.8,85,0.00,,,0.00,WUHU216HW,2013-03-06 04:15:00,
2013-03-05 23:20:00,65.3,61.0,30.07,SSW,203,1.6,2.5,86,0.00,,,0.00,WUHU216HW,2013-03-06 04:20:00,
2013-03-05 23:25:00,65.2,60.8,30.07,ESE,113,1.6,2.5,86,0.00,,,0.00,WUHU216HW,2013-03-06 04:25:00,
2013-03-05 23:30:00,65.2,60.8,30.07,South,180,1.3,1.6,86,0.00,,,0.00,WUHU216HW,2013-03-06 04:30:00,
2013-03-05 23:35:00,65.2,61.2,30.07,SSW,203,1.1,1.8,87,0.00,,,0.00,WUHU216HW,2013-03-06 04:35:00,
2013-03-05 23:40:00,65.2,60.8,30.07,ESE,113,0.4,2.2,86,0.00,,,0.00,WUHU216HW,2013-03-06 04:40:00,
2013-03-05 23:45:00,65.2,60.6,30.07,SW,225,1.3,2.2,85,0.00,,,0.00,WUHU216HW,2013-03-06 04:45:00,
2013-03-05 23:50:00,65.3,60.8,30.07,SSW,203,1.8,2.7,85,0.00,,,0.00,WUHU216HW,2013-03-06 04:50:00,
2013-03-05 23:55:00,65.3,60.8,30.06,SE,135,0.7,3.4,85,0.00,,,0.00,WUHU216HW,2013-03-06 04:55:00,